St. George, AK

7:19 PM AKDT on June 27, 2017 (GMT -0800)
Saint George

Weather History for PAPB - November, 2012

Change the Weather History Date:

Wednesday, November 21, 2012

  Actual Average Record
Temperature  
Mean Temperature 29 °F -  
Max Temperature 30 °F 35 °F 43 °F (2010)
Min Temperature 28 °F 29 °F 23 °F (2005)
Degree Days  
Heating Degree Days 36    
Moisture  
Dew Point 22 °F    
Average Humidity 73    
Maximum Humidity 82    
Minimum Humidity 69    
Precipitation  
Precipitation 0.00 in - - ()
Sea Level Pressure  
Sea Level Pressure 30.17 in    
Wind  
Wind Speed 23 mph (North)    
Max Wind Speed 31 mph    
Max Gust Speed 40 mph    
Visibility 10 miles    
Events      
Averages and records for this station are not official NWS values.
T = Trace of Precipitation, MM = Missing Value Source: NWS Daily Summary

Daily Weather History Graph

Daily Weather History Graph

Search for Another Location

Airport or City:

Trip Planner

Search our weather history database for the weather conditions in past years. The results will help you decide how hot, cold, wet, or windy it might be!

Date:

Astronomy

Nov. 21, 2012 Rise Set
Actual Time 10:11 AM AKST 5:56 PM AKST
Civil Twilight 9:27 AM AKST 6:41 PM AKST
Nautical Twilight 8:39 AM AKST 7:29 PM AKST
Astronomical Twilight 7:54 AM AKST 8:13 PM AKST
Moon 3:22 PM AKST (11/21) 2:35 AM AKST (11/21)
Length of Visible Light 9h 14m
Length of Day
7h 45m
Waxing Gibbous, 63% of the Moon is Illuminated
Nov 21
Waxing Gibbous
Nov 28
Full
Dec 6
Last Quarter
Dec 12
New
Dec 19
First Quarter

Hourly Weather History & Observations

Time (AKST) Temp. Windchill Dew Point Humidity Pressure Visibility Wind Dir Wind Speed Gust Speed Precip Events Conditions
12:36 AM 28.4 °F 15.4 °F 19.4 °F 69% 30.18 in 10.0 mi North 19.6 mph 32.2 mph N/A   Mostly Cloudy
12:53 AM 28.0 °F 13.3 °F 19.9 °F 72% 30.14 in 10.0 mi NNE 25.3 mph 34.5 mph N/A   Mostly Cloudy
1:28 AM 28.4 °F 12.7 °F 21.2 °F 74% 30.17 in 10.0 mi NNE 29.9 mph 34.5 mph N/A   Scattered Clouds
1:40 AM 28.4 °F 13.8 °F 21.2 °F 74% 30.17 in 10.0 mi NNE 25.3 mph 32.2 mph N/A   Mostly Cloudy
1:53 AM 28.0 °F 12.8 °F 21.0 °F 75% 30.14 in 10.0 mi NNE 27.6 mph 35.7 mph N/A   Mostly Cloudy
3:53 AM 30.0 °F 17.2 °F 21.9 °F 72% 30.16 in 10.0 mi North 20.7 mph 31.1 mph N/A   Overcast
4:53 AM 30.0 °F 16.6 °F 21.9 °F 72% 30.15 in 10.0 mi North 23.0 mph 32.2 mph N/A   Mostly Cloudy
5:21 AM 30.2 °F 16.5 °F 21.2 °F 69% 30.19 in 10.0 mi North 24.2 mph 38.0 mph N/A   Scattered Clouds
5:36 AM 30.2 °F 16.5 °F 21.2 °F 69% 30.19 in 10.0 mi North 24.2 mph 34.5 mph N/A   Mostly Cloudy
5:53 AM 30.0 °F 16.6 °F 21.9 °F 72% 30.16 in 10.0 mi North 23.0 mph 34.5 mph N/A   Mostly Cloudy
6:53 AM 30.0 °F 14.7 °F 21.9 °F 72% 30.15 in 10.0 mi North 31.1 mph 40.3 mph N/A   Scattered Clouds
7:53 AM 30.0 °F 15.7 °F 21.9 °F 72% 30.15 in 10.0 mi North 26.5 mph 33.4 mph N/A   Mostly Cloudy
8:53 AM 30.0 °F 15.4 °F 21.9 °F 72% 30.15 in 10.0 mi North 27.6 mph 33.4 mph N/A   Scattered Clouds
9:05 AM 30.2 °F 15.9 °F 21.2 °F 69% 30.19 in 10.0 mi NNE 26.5 mph 38.0 mph N/A   Mostly Cloudy
9:53 AM 30.0 °F 15.7 °F 23.0 °F 75% 30.16 in 10.0 mi North 26.5 mph 36.8 mph N/A   Mostly Cloudy
10:53 AM 30.0 °F 16.6 °F 21.9 °F 72% 30.17 in 10.0 mi North 23.0 mph 33.4 mph N/A   Partly Cloudy
11:22 AM 30.2 °F 17.4 °F 21.2 °F 69% 30.21 in 10.0 mi NNE 20.7 mph 28.8 mph N/A   Mostly Cloudy
11:53 AM 30.9 °F 17.8 °F 21.9 °F 69% 30.18 in 10.0 mi NNE 23.0 mph 31.1 mph N/A   Mostly Cloudy
12:53 PM 30.9 °F 17.8 °F 21.9 °F 69% 30.18 in 10.0 mi North 23.0 mph 32.2 mph N/A   Overcast
1:53 PM 30.9 °F 18.7 °F 23.0 °F 72% 30.18 in 10.0 mi NNE 19.6 mph 27.6 mph N/A   Overcast
2:53 PM 30.9 °F 19.8 °F 23.0 °F 72% 30.17 in 10.0 mi North 16.1 mph 25.3 mph N/A   Overcast
3:53 PM 30.9 °F 20.7 °F 23.0 °F 72% 30.17 in 10.0 mi North 13.8 mph 25.3 mph N/A   Overcast
4:53 PM 30.9 °F 20.2 °F 23.0 °F 72% 30.17 in 10.0 mi North 15.0 mph 29.9 mph N/A   Overcast
5:53 PM 30.9 °F 18.4 °F 24.1 °F 76% 30.16 in 10.0 mi North 20.7 mph 31.1 mph N/A   Overcast
6:53 PM 30.9 °F 19.4 °F 24.1 °F 76% 30.17 in 10.0 mi North 17.3 mph 32.2 mph N/A   Overcast
7:53 PM 30.9 °F 18.1 °F 24.1 °F 76% 30.16 in 10.0 mi NNE 21.9 mph 33.4 mph N/A   Overcast
8:53 PM 30.9 °F 19.1 °F 24.1 °F 76% 30.16 in 10.0 mi North 18.4 mph 28.8 mph N/A   Overcast
9:53 PM 30.9 °F 19.1 °F 25.0 °F 79% 30.16 in 10.0 mi North 18.4 mph 32.2 mph N/A   Overcast
10:53 PM 30.9 °F 18.7 °F 24.1 °F 76% 30.15 in 10.0 mi North 19.6 mph 26.5 mph N/A   Overcast
11:53 PM 30.9 °F 20.2 °F 26.1 °F 82% 30.15 in 10.0 mi North 15.0 mph 25.3 mph N/A   Overcast